AIB131 KTPA-MPTO

Flight info

Callsign AIB131
Flight time 2h 47m
Altitude 35000
Route GANDY8 SABEE DCT FUNDI UM335 ARNAL DCT SEKMA OSUPA2C
Aircraft A346/H-SDE2E3FGHIJ3J4J5M1RWXY/LB1D1

Departure

Time 2026-05-03 21:52
Airport Tampa International Airport (KTPA)

Arrival

Time 2026-05-04 00:39
Airport Tocumen International Airport (MPTO)
Time Latitude Longitude Altitude Speed Heading
2026-05-03 21:06 27.96835 -82.52158 60 ft 0 kts
2026-05-03 21:20 27.96827 -82.52158 40 ft 0 kts
2026-05-03 21:20 27.96805 -82.52159 39 ft 0 kts 356°
2026-05-03 21:21 27.96788 -82.52157 40 ft 0 kts 352°
2026-05-03 21:21 27.96785 -82.52156 40 ft 0 kts 348°
2026-05-03 21:26 27.96787 -82.52157 41 ft 1 kts 348°
2026-05-03 21:26 27.96797 -82.52159 41 ft 3 kts 348°
2026-05-03 21:26 27.96823 -82.52170 41 ft 4 kts 329°
2026-05-03 21:26 27.96839 -82.52185 42 ft 2 kts 311°
2026-05-03 21:27 27.96849 -82.52203 42 ft 4 kts 296°
2026-05-03 21:27 27.96859 -82.52244 42 ft 6 kts 278°
2026-05-03 21:27 27.96862 -82.52288 43 ft 5 kts 272°
2026-05-03 21:27 27.96864 -82.52336 43 ft 7 kts 272°
2026-05-03 21:28 27.96892 -82.52378 42 ft 10 kts 355°
2026-05-03 21:28 27.96926 -82.52407 42 ft 7 kts 287°
2026-05-03 21:28 27.96933 -82.52461 41 ft 7 kts 273°
2026-05-03 21:28 27.96934 -82.52511 41 ft 6 kts 271°
2026-05-03 21:29 27.96935 -82.52565 41 ft 7 kts 271°
2026-05-03 21:29 27.96936 -82.52613 41 ft 6 kts 271°
2026-05-03 21:29 27.96937 -82.52656 41 ft 5 kts 271°
2026-05-03 21:29 27.96938 -82.52696 40 ft 5 kts 271°
2026-05-03 21:30 27.96942 -82.52742 39 ft 6 kts 292°
2026-05-03 21:30 27.96962 -82.52761 37 ft 1 kts
2026-05-03 21:31 27.96963 -82.52761 38 ft 0 kts
2026-05-03 21:32 27.96971 -82.52760 39 ft 4 kts
2026-05-03 21:32 27.97025 -82.52758 38 ft 11 kts
2026-05-03 21:32 27.97101 -82.52755 38 ft 11 kts
2026-05-03 21:32 27.97181 -82.52752 37 ft 11 kts
2026-05-03 21:33 27.97213 -82.52751 37 ft 3 kts
2026-05-03 21:33 27.97232 -82.52750 37 ft 2 kts
2026-05-03 21:33 27.97247 -82.52750 37 ft 2 kts
2026-05-03 21:33 27.97256 -82.52749 37 ft 1 kts
2026-05-03 21:34 27.97265 -82.52750 37 ft 1 kts 355°
2026-05-03 21:34 27.97268 -82.52750 37 ft 0 kts 351°
2026-05-03 21:34 27.97269 -82.52751 37 ft 0 kts 348°
2026-05-03 21:35 27.97270 -82.52751 37 ft 0 kts 347°
2026-05-03 21:35 27.97273 -82.52752 37 ft 0 kts 339°
2026-05-03 21:35 27.97275 -82.52754 37 ft 0 kts 326°
2026-05-03 21:36 27.97276 -82.52754 37 ft 0 kts 321°
2026-05-03 21:36 27.97276 -82.52755 37 ft 0 kts 313°
2026-05-03 21:36 27.97277 -82.52756 37 ft 0 kts 311°
2026-05-03 21:37 27.97277 -82.52757 37 ft 1 kts 305°
2026-05-03 21:37 27.97285 -82.52773 37 ft 2 kts 295°
2026-05-03 21:37 27.97293 -82.52803 37 ft 8 kts 282°
2026-05-03 21:37 27.97299 -82.52894 37 ft 15 kts 271°
2026-05-03 21:38 27.97301 -82.53018 36 ft 15 kts 271°
2026-05-03 21:38 27.97303 -82.53135 36 ft 14 kts 272°
2026-05-03 21:38 27.97306 -82.53243 35 ft 13 kts 272°
2026-05-03 21:38 27.97309 -82.53345 35 ft 13 kts 272°
2026-05-03 21:39 27.97311 -82.53412 35 ft 13 kts 272°
2026-05-03 21:39 27.97319 -82.53515 36 ft 13 kts 279°
2026-05-03 21:39 27.97348 -82.53626 32 ft 16 kts 293°
2026-05-03 21:39 27.97424 -82.53774 35 ft 13 kts 302°
2026-05-03 21:40 27.97471 -82.53858 33 ft 12 kts 303°
2026-05-03 21:40 27.97498 -82.53915 31 ft 14 kts 284°
2026-05-03 21:40 27.97446 -82.53987 30 ft 15 kts 186°
2026-05-03 21:40 27.97370 -82.53998 31 ft 9 kts 211°
2026-05-03 21:41 27.97340 -82.54054 32 ft 7 kts 237°
2026-05-03 21:41 27.97289 -82.54075 33 ft 9 kts 186°
2026-05-03 21:41 27.97217 -82.54080 33 ft 11 kts 182°
2026-05-03 21:41 27.97135 -82.54083 34 ft 12 kts 182°
2026-05-03 21:42 27.97047 -82.54086 36 ft 13 kts 182°
2026-05-03 21:42 27.96951 -82.54089 36 ft 15 kts 181°
2026-05-03 21:42 27.96842 -82.54092 33 ft 17 kts 181°
2026-05-03 21:42 27.96707 -82.54097 31 ft 21 kts 182°
2026-05-03 21:43 27.96582 -82.54101 30 ft 15 kts 181°
2026-05-03 21:43 27.96495 -82.54104 28 ft 11 kts 181°
2026-05-03 21:43 27.96421 -82.54106 28 ft 10 kts 181°
2026-05-03 21:43 27.96377 -82.54108 27 ft 5 kts 181°
2026-05-03 21:44 27.96355 -82.54115 26 ft 3 kts 220°
2026-05-03 21:44 27.96348 -82.54133 25 ft 0 kts 266°
2026-05-03 21:51 27.96348 -82.54134 25 ft 1 kts 266°
2026-05-03 21:51 27.96354 -82.54198 23 ft 10 kts 300°
2026-05-03 21:51 27.96444 -82.54233 26 ft 22 kts 358°
2026-05-03 21:51 27.96828 -82.54221 33 ft 89 kts
2026-05-03 21:52 27.97665 -82.54194 27 ft 149 kts
2026-05-03 21:52 27.98853 -82.54163 221 ft 182 kts
2026-05-03 21:52 28.00133 -82.54111 911 ft 186 kts
2026-05-03 21:52 28.01420 -82.54038 1624 ft 188 kts
2026-05-03 21:53 28.02742 -82.53958 2214 ft 194 kts
2026-05-03 21:53 28.04142 -82.53872 2557 ft 209 kts
2026-05-03 21:53 28.05637 -82.53987 2938 ft 224 kts 344°
2026-05-03 21:53 28.07069 -82.54904 3349 ft 243 kts 327°
2026-05-03 21:54 28.08365 -82.56258 3679 ft 266 kts 304°
2026-05-03 21:54 28.09023 -82.58230 4217 ft 277 kts 280°
2026-05-03 21:54 28.09233 -82.60435 5069 ft 277 kts 275°
2026-05-03 21:54 28.09357 -82.62611 5958 ft 275 kts 274°
2026-05-03 21:55 28.09403 -82.64768 6861 ft 273 kts 262°
2026-05-03 21:55 28.08662 -82.66722 7652 ft 273 kts 229°
2026-05-03 21:55 28.07123 -82.67985 8471 ft 278 kts 204°
2026-05-03 21:55 28.05203 -82.68387 9235 ft 288 kts 180°
2026-05-03 21:56 28.03225 -82.67852 9998 ft 297 kts 165°
2026-05-03 21:56 28.01266 -82.67035 10563 ft 305 kts 165°
2026-05-03 21:56 27.99214 -82.66192 10910 ft 322 kts 165°
2026-05-03 21:56 27.97064 -82.65328 11219 ft 339 kts 165°
2026-05-03 21:57 27.94780 -82.64421 11526 ft 356 kts 165°
2026-05-03 21:57 27.92380 -82.63475 11829 ft 373 kts 165°
2026-05-03 21:57 27.89918 -82.62506 11995 ft 383 kts 165°
2026-05-03 21:57 27.87388 -82.61515 11989 ft 384 kts 165°
2026-05-03 21:58 27.84857 -82.60525 11978 ft 384 kts 165°
2026-05-03 21:58 27.82329 -82.59538 11974 ft 384 kts 165°
2026-05-03 21:58 27.79800 -82.58553 11980 ft 384 kts 165°
2026-05-03 21:58 27.77274 -82.57554 11981 ft 385 kts 164°
2026-05-03 21:59 27.74782 -82.56425 11974 ft 386 kts 161°
2026-05-03 21:59 27.72303 -82.55250 11969 ft 386 kts 161°
2026-05-03 21:59 27.69821 -82.54073 11972 ft 386 kts 161°
2026-05-03 21:59 27.67370 -82.52911 11975 ft 386 kts 161°
2026-05-03 22:00 27.64891 -82.51736 11974 ft 386 kts 161°
2026-05-03 22:00 27.62411 -82.50561 11974 ft 386 kts 161°
2026-05-03 22:00 27.59924 -82.49384 12052 ft 392 kts 161°
2026-05-03 22:00 27.57399 -82.48155 12701 ft 396 kts 159°
2026-05-03 22:01 27.54936 -82.46767 13664 ft 395 kts 156°
2026-05-03 22:01 27.52489 -82.45297 14398 ft 397 kts 156°
2026-05-03 22:01 27.50018 -82.43806 14990 ft 402 kts 157°
2026-05-03 22:01 27.47538 -82.42313 15537 ft 407 kts 157°
2026-05-03 22:02 27.45052 -82.40818 16088 ft 412 kts 157°
2026-05-03 22:02 27.42506 -82.39290 16629 ft 416 kts 158°
2026-05-03 22:02 27.39932 -82.37748 17174 ft 420 kts 158°
2026-05-03 22:02 27.37333 -82.36192 17706 ft 424 kts 158°
2026-05-03 22:03 27.34707 -82.34621 18204 ft 429 kts 158°
2026-05-03 22:03 27.32057 -82.33036 18664 ft 433 kts 158°
2026-05-03 22:03 27.29385 -82.31436 19129 ft 437 kts 159°
2026-05-03 22:03 27.26688 -82.29821 19599 ft 439 kts 159°
2026-05-03 22:04 27.24014 -82.28221 20078 ft 442 kts 159°
2026-05-03 22:04 27.21282 -82.26588 20554 ft 445 kts 159°
2026-05-03 22:04 27.18533 -82.24947 21015 ft 447 kts 159°
2026-05-03 22:04 27.15768 -82.23297 21487 ft 450 kts 159°
2026-05-03 22:05 27.12992 -82.21642 21953 ft 453 kts 159°
2026-05-03 22:05 27.10168 -82.20040 22387 ft 454 kts 162°
2026-05-03 22:05 27.07276 -82.18609 22848 ft 453 kts 165°
2026-05-03 22:05 27.04355 -82.17374 23311 ft 453 kts 168°
2026-05-03 22:06 27.01378 -82.16203 23739 ft 455 kts 168°
2026-05-03 22:06 26.98365 -82.15027 24105 ft 458 kts 168°
2026-05-03 22:06 26.95351 -82.13851 24475 ft 460 kts 168°
2026-05-03 22:06 26.92306 -82.12662 24857 ft 463 kts 168°
2026-05-03 22:07 26.89257 -82.11471 25243 ft 465 kts 168°
2026-05-03 22:07 26.86191 -82.10272 25624 ft 468 kts 168°
2026-05-03 22:07 26.83104 -82.09066 25998 ft 470 kts 168°
2026-05-03 22:07 26.80036 -82.07868 26354 ft 473 kts 168°
2026-05-03 22:08 26.76917 -82.06650 26711 ft 476 kts 168°
2026-05-03 22:08 26.73775 -82.05424 27063 ft 479 kts 168°
2026-05-03 22:08 26.70612 -82.04190 27397 ft 482 kts 168°
2026-05-03 22:08 26.67430 -82.02949 27756 ft 484 kts 168°
2026-05-03 22:09 26.64250 -82.01708 28246 ft 483 kts 168°
2026-05-03 22:09 26.61108 -82.00485 28783 ft 481 kts 168°
2026-05-03 22:09 26.57942 -81.99250 29305 ft 481 kts 168°
2026-05-03 22:10 26.51622 -81.96782 30265 ft 480 kts 168°
2026-05-03 22:10 26.48462 -81.95549 30685 ft 479 kts 169°
2026-05-03 22:10 26.45363 -81.94341 31119 ft 478 kts 169°
2026-05-03 22:10 26.42225 -81.93120 31567 ft 476 kts 169°
2026-05-03 22:11 26.39105 -81.91907 32023 ft 474 kts 170°
2026-05-03 22:11 26.35987 -81.90698 32461 ft 472 kts 170°
2026-05-03 22:11 26.32879 -81.89494 32870 ft 471 kts 170°
2026-05-03 22:11 26.29780 -81.88295 33291 ft 470 kts 171°
2026-05-03 22:12 26.26694 -81.87102 33647 ft 469 kts 171°
2026-05-03 22:12 26.23638 -81.85924 33945 ft 470 kts 171°
2026-05-03 22:12 26.20549 -81.84734 34183 ft 472 kts 171°
2026-05-03 22:12 26.17436 -81.83536 34421 ft 473 kts 171°
2026-05-03 22:13 26.14313 -81.82333 34655 ft 473 kts 171°
2026-05-03 22:13 26.11196 -81.81133 34854 ft 475 kts 171°
2026-05-03 22:13 26.08068 -81.79928 35015 ft 476 kts 171°
2026-05-03 22:14 26.01796 -81.77512 35016 ft 476 kts 170°
2026-05-03 22:14 25.95554 -81.75110 35025 ft 476 kts 170°
2026-05-03 22:15 25.89270 -81.72694 35017 ft 477 kts 170°
2026-05-03 22:15 25.83021 -81.70295 35017 ft 477 kts 170°
2026-05-03 22:16 25.76748 -81.67888 35020 ft 477 kts 170°
2026-05-03 22:16 25.70456 -81.65478 35016 ft 477 kts 170°
2026-05-03 22:17 25.64215 -81.63089 35011 ft 477 kts 169°
2026-05-03 22:17 25.57931 -81.60688 35014 ft 477 kts 169°
2026-05-03 22:18 25.51649 -81.58289 35006 ft 477 kts 169°
2026-05-03 22:18 25.45363 -81.55891 35011 ft 477 kts 169°
2026-05-03 22:19 25.39062 -81.53491 35010 ft 477 kts 169°
2026-05-03 22:19 25.32813 -81.51113 35004 ft 478 kts 169°
2026-05-03 22:20 25.26503 -81.48714 34998 ft 478 kts 169°
2026-05-03 22:20 25.20232 -81.46333 35005 ft 478 kts 169°
2026-05-03 22:21 25.13927 -81.43942 35000 ft 478 kts 169°
2026-05-03 22:21 25.07628 -81.41555 34999 ft 479 kts 169°
2026-05-03 22:22 25.01312 -81.39165 35000 ft 479 kts 169°
2026-05-03 22:22 24.95039 -81.36794 35000 ft 479 kts 169°
2026-05-03 22:23 24.88704 -81.34402 34998 ft 479 kts 169°
2026-05-03 22:23 24.82392 -81.32020 34999 ft 479 kts 168°
2026-05-03 22:24 24.76059 -81.29634 34994 ft 480 kts 168°
2026-05-03 22:24 24.69734 -81.27254 34994 ft 480 kts 168°
2026-05-03 22:25 24.63448 -81.24890 35000 ft 480 kts 168°
2026-05-03 22:25 24.57102 -81.22507 35000 ft 481 kts 168°
2026-05-03 22:26 24.51834 -81.20530 35000 ft 481 kts 168°
2026-05-03 22:26 24.44455 -81.17764 34999 ft 482 kts 168°
2026-05-03 22:27 24.39159 -81.15781 34998 ft 482 kts 168°
2026-05-03 22:27 24.32803 -81.13404 35002 ft 482 kts 168°
2026-05-03 22:28 24.26434 -81.11025 35002 ft 483 kts 168°
2026-05-03 22:28 24.20115 -81.08667 35001 ft 483 kts 167°
2026-05-03 22:29 24.13745 -81.06292 35003 ft 483 kts 167°
2026-05-03 22:29 24.07356 -81.03932 35004 ft 483 kts 169°
2026-05-03 22:30 24.00892 -81.02085 35003 ft 478 kts 174°
2026-05-03 22:30 23.94348 -81.01013 35002 ft 473 kts 180°
2026-05-03 22:31 23.87798 -81.00630 35003 ft 471 kts 184°
2026-05-03 22:31 23.81263 -81.00371 35000 ft 473 kts 183°
2026-05-03 22:32 23.74692 -81.00100 35001 ft 473 kts 183°
2026-05-03 22:32 23.68098 -80.99823 35002 ft 474 kts 183°
2026-05-03 22:33 23.61485 -80.99544 35000 ft 474 kts 183°
2026-05-03 22:33 23.54905 -80.99267 35002 ft 475 kts 183°
2026-05-03 22:34 23.48295 -80.98990 35002 ft 476 kts 183°
2026-05-03 22:34 23.41670 -80.98711 35001 ft 476 kts 183°
2026-05-03 22:35 23.35047 -80.98434 35001 ft 476 kts 183°
2026-05-03 22:35 23.28436 -80.98157 35006 ft 477 kts 183°
2026-05-03 22:36 23.21790 -80.97876 35003 ft 477 kts 183°
2026-05-03 22:36 23.15172 -80.97596 35002 ft 478 kts 183°
2026-05-03 22:37 23.08518 -80.97317 34999 ft 478 kts 182°
2026-05-03 22:37 23.01861 -80.97029 34999 ft 478 kts 182°
2026-05-03 22:38 22.95235 -80.96759 35007 ft 478 kts 183°
2026-05-03 22:38 22.88573 -80.96498 35007 ft 478 kts 183°
2026-05-03 22:39 22.81947 -80.96239 35009 ft 479 kts 183°
2026-05-03 22:39 22.75278 -80.95978 35004 ft 478 kts 183°
2026-05-03 22:40 22.68649 -80.95719 35010 ft 479 kts 183°
2026-05-03 22:40 22.61973 -80.95458 35011 ft 479 kts 183°
2026-05-03 22:41 22.55306 -80.95197 35008 ft 479 kts 183°
2026-05-03 22:41 22.48670 -80.94939 35007 ft 479 kts 183°
2026-05-03 22:42 22.41960 -80.94678 35395 ft 482 kts 183°
2026-05-03 22:42 22.38614 -80.94545 35756 ft 480 kts 183°
2026-05-03 22:42 22.35281 -80.94414 36092 ft 478 kts 183°
2026-05-03 22:42 22.31951 -80.94283 36395 ft 477 kts 183°
2026-05-03 22:43 22.28678 -80.94155 36680 ft 476 kts 183°
2026-05-03 22:43 22.25372 -80.94027 36942 ft 475 kts 183°
2026-05-03 22:43 22.22065 -80.93899 36993 ft 475 kts 183°
2026-05-03 22:44 22.15459 -80.93645 37003 ft 474 kts 183°
2026-05-03 22:44 22.08865 -80.93390 37007 ft 474 kts 183°
2026-05-03 22:45 22.02309 -80.93137 37017 ft 474 kts 183°
2026-05-03 22:45 21.95714 -80.92881 37009 ft 473 kts 183°
2026-05-03 22:46 21.89127 -80.92626 37000 ft 473 kts 183°
2026-05-03 22:46 21.82546 -80.92373 37006 ft 473 kts 183°
2026-05-03 22:47 21.75989 -80.92120 37007 ft 473 kts 183°
2026-05-03 22:47 21.69397 -80.91866 37003 ft 473 kts 183°
2026-05-03 22:48 21.62817 -80.91613 37000 ft 473 kts 183°
2026-05-03 22:48 21.56266 -80.91362 36999 ft 473 kts 182°
2026-05-03 22:49 21.49681 -80.91108 37001 ft 473 kts 182°
2026-05-03 22:49 21.43087 -80.90850 37000 ft 473 kts 182°
2026-05-03 22:50 21.36543 -80.90594 36999 ft 473 kts 182°
2026-05-03 22:50 21.29957 -80.90337 37003 ft 473 kts 182°
2026-05-03 22:51 21.23388 -80.90082 37006 ft 472 kts 182°
2026-05-03 22:51 21.16799 -80.89829 37001 ft 472 kts 182°
2026-05-03 22:52 21.10270 -80.89578 37000 ft 472 kts 182°
2026-05-03 22:52 21.03693 -80.89314 37000 ft 473 kts 182°
2026-05-03 22:53 20.97109 -80.89019 37005 ft 473 kts 182°
2026-05-03 22:53 20.90568 -80.88727 36997 ft 472 kts 182°
2026-05-03 22:54 20.83990 -80.88437 37006 ft 472 kts 182°
2026-05-03 22:54 20.77457 -80.88150 36999 ft 472 kts 182°
2026-05-03 22:55 20.70879 -80.87862 36997 ft 472 kts 182°
2026-05-03 22:55 20.64297 -80.87574 36998 ft 472 kts 182°
2026-05-03 22:56 20.57723 -80.87287 37000 ft 472 kts 182°
2026-05-03 22:56 20.51198 -80.87002 37000 ft 472 kts 182°
2026-05-03 22:57 20.44608 -80.86714 36994 ft 472 kts 182°
2026-05-03 22:57 20.38042 -80.86429 36999 ft 472 kts 182°
2026-05-03 22:58 20.31499 -80.86143 36999 ft 472 kts 182°
2026-05-03 22:58 20.24927 -80.85855 37002 ft 472 kts 182°
2026-05-03 22:59 20.18364 -80.85568 37002 ft 472 kts 182°
2026-05-03 22:59 20.11825 -80.85284 36996 ft 472 kts 182°
2026-05-03 23:00 20.05260 -80.85000 37005 ft 472 kts 182°
2026-05-03 23:00 19.98680 -80.84713 37001 ft 472 kts 181°
2026-05-03 23:01 19.92153 -80.84396 36999 ft 472 kts 181°
2026-05-03 23:01 19.85593 -80.84075 36999 ft 472 kts 181°
2026-05-03 23:02 19.79016 -80.83758 36993 ft 472 kts 181°
2026-05-03 23:02 19.72489 -80.83446 37000 ft 472 kts 181°
2026-05-03 23:03 19.65926 -80.83133 37017 ft 472 kts 181°
2026-05-03 23:03 19.59343 -80.82819 37000 ft 472 kts 181°
2026-05-03 23:04 19.52811 -80.82506 37002 ft 472 kts 181°
2026-05-03 23:04 19.46228 -80.82191 36997 ft 472 kts 181°
2026-05-03 23:05 19.39648 -80.81877 37011 ft 473 kts 181°
2026-05-03 23:05 19.33076 -80.81564 36993 ft 473 kts 181°
2026-05-03 23:06 19.26538 -80.81252 37002 ft 473 kts 181°
2026-05-03 23:06 19.19940 -80.80935 36996 ft 473 kts 181°
2026-05-03 23:07 19.13346 -80.80619 36994 ft 473 kts 181°
2026-05-03 23:07 19.06814 -80.80308 36993 ft 473 kts 181°
2026-05-03 23:08 19.00218 -80.79994 36989 ft 473 kts 181°
2026-05-03 23:08 18.93624 -80.79681 36996 ft 473 kts 181°
2026-05-03 23:09 18.87074 -80.79369 36990 ft 473 kts 181°
2026-05-03 23:09 18.80497 -80.79057 36995 ft 473 kts 181°
2026-05-03 23:10 18.73908 -80.78746 36994 ft 472 kts 181°
2026-05-03 23:10 18.67373 -80.78438 36998 ft 472 kts 181°
2026-05-03 23:11 18.60803 -80.78129 36996 ft 472 kts 181°
2026-05-03 23:11 18.54229 -80.77819 36994 ft 472 kts 181°
2026-05-03 23:12 18.47669 -80.77509 36994 ft 472 kts 181°
2026-05-03 23:12 18.41135 -80.77201 36991 ft 472 kts 181°
2026-05-03 23:13 18.34570 -80.76892 36989 ft 472 kts 181°
2026-05-03 23:13 18.27982 -80.76581 36990 ft 473 kts 181°
2026-05-03 23:14 18.21455 -80.76274 36988 ft 473 kts 181°
2026-05-03 23:14 18.14880 -80.75965 36989 ft 473 kts 181°
2026-05-03 23:15 18.08293 -80.75656 36985 ft 473 kts 181°
2026-05-03 23:15 18.01701 -80.75346 36986 ft 474 kts 181°
2026-05-03 23:16 17.96231 -80.75090 36984 ft 474 kts 181°
2026-05-03 23:16 17.88556 -80.74730 36982 ft 474 kts 181°
2026-05-03 23:17 17.83070 -80.74473 36978 ft 474 kts 181°
2026-05-03 23:17 17.75388 -80.74114 36984 ft 474 kts 181°
2026-05-03 23:18 17.69893 -80.73858 36984 ft 475 kts 181°
2026-05-03 23:18 17.63275 -80.73549 36979 ft 475 kts 181°
2026-05-03 23:19 17.56665 -80.73237 36983 ft 475 kts 181°
2026-05-03 23:19 17.50094 -80.72928 36979 ft 475 kts 181°
2026-05-03 23:20 17.43490 -80.72618 36977 ft 475 kts 181°
2026-05-03 23:20 17.36882 -80.72310 36977 ft 475 kts 181°
2026-05-03 23:21 17.30314 -80.72003 36978 ft 475 kts 181°
2026-05-03 23:21 17.23696 -80.71694 36975 ft 475 kts 181°
2026-05-03 23:22 17.13819 -80.71234 36975 ft 475 kts 181°
2026-05-03 23:22 17.07205 -80.70926 36970 ft 475 kts 181°
2026-05-03 23:23 17.00582 -80.70619 36974 ft 475 kts 181°
2026-05-03 23:23 16.93975 -80.70311 36976 ft 476 kts 181°
2026-05-03 23:24 16.87398 -80.70006 36972 ft 476 kts 180°
2026-05-03 23:24 16.80759 -80.69698 36972 ft 476 kts 180°
2026-05-03 23:25 16.74178 -80.69393 36970 ft 476 kts 180°
2026-05-03 23:25 16.67554 -80.69086 36973 ft 476 kts 180°
2026-05-03 23:26 16.60915 -80.68779 36970 ft 476 kts 180°
2026-05-03 23:26 16.54275 -80.68471 36969 ft 477 kts 180°
2026-05-03 23:27 16.47690 -80.68167 36968 ft 477 kts 180°
2026-05-03 23:27 16.41057 -80.67860 36970 ft 477 kts 180°
2026-05-03 23:28 16.34409 -80.67554 36968 ft 477 kts 180°
2026-05-03 23:28 16.27802 -80.67248 36967 ft 477 kts 180°
2026-05-03 23:29 16.21156 -80.66942 36969 ft 477 kts 180°
2026-05-03 23:29 16.14546 -80.66638 36968 ft 477 kts 180°
2026-05-03 23:30 16.07900 -80.66332 36970 ft 477 kts 180°
2026-05-03 23:30 16.01244 -80.66025 36968 ft 478 kts 180°
2026-05-03 23:31 15.94645 -80.65722 36966 ft 478 kts 180°
2026-05-03 23:31 15.87985 -80.65415 36966 ft 478 kts 180°
2026-05-03 23:32 15.81337 -80.65110 36963 ft 478 kts 180°
2026-05-03 23:32 15.74729 -80.64807 36963 ft 478 kts 180°
2026-05-03 23:33 15.68077 -80.64501 36962 ft 478 kts 180°
2026-05-03 23:33 15.61416 -80.64196 36963 ft 478 kts 180°
2026-05-03 23:34 15.54762 -80.63891 36960 ft 478 kts 180°
2026-05-03 23:34 15.48143 -80.63588 36962 ft 478 kts 180°
2026-05-03 23:35 15.41477 -80.63283 36963 ft 478 kts 180°
2026-05-03 23:35 15.34815 -80.62979 36962 ft 478 kts 180°
2026-05-03 23:36 15.28209 -80.62677 36963 ft 478 kts 180°
2026-05-03 23:36 15.21553 -80.62374 36955 ft 478 kts 180°
2026-05-03 23:37 15.14939 -80.62073 36955 ft 478 kts 180°
2026-05-03 23:37 15.08298 -80.61772 36958 ft 477 kts 180°
2026-05-03 23:38 15.01647 -80.61428 36958 ft 478 kts 177°
2026-05-03 23:38 14.95077 -80.60555 36958 ft 479 kts 173°
2026-05-03 23:39 14.88490 -80.59417 36956 ft 479 kts 173°
2026-05-03 23:39 14.81897 -80.58277 36956 ft 479 kts 173°
2026-05-03 23:40 14.75347 -80.57149 36948 ft 478 kts 173°
2026-05-03 23:40 14.68759 -80.56018 36947 ft 481 kts 172°
2026-05-03 23:41 14.62147 -80.54883 36949 ft 481 kts 172°
2026-05-03 23:41 14.55577 -80.53756 36949 ft 481 kts 172°
2026-05-03 23:42 14.48977 -80.52624 36950 ft 481 kts 172°
2026-05-03 23:42 14.42362 -80.51491 36948 ft 481 kts 172°
2026-05-03 23:43 14.35803 -80.50368 36947 ft 480 kts 172°
2026-05-03 23:43 14.29196 -80.49237 36948 ft 480 kts 172°
2026-05-03 23:44 14.22586 -80.48106 36948 ft 480 kts 172°
2026-05-03 23:44 14.15995 -80.46980 36947 ft 480 kts 172°
2026-05-03 23:45 14.09428 -80.45858 36946 ft 480 kts 172°
2026-05-03 23:45 14.02835 -80.44732 36946 ft 479 kts 172°
2026-05-03 23:46 13.96249 -80.43609 36944 ft 479 kts 172°
2026-05-03 23:46 13.89705 -80.42493 36942 ft 479 kts 172°
2026-05-03 23:47 13.83132 -80.41373 36943 ft 478 kts 172°
2026-05-03 23:47 13.76559 -80.40254 36946 ft 478 kts 172°
2026-05-03 23:48 13.69986 -80.39135 36946 ft 478 kts 172°
2026-05-03 23:48 13.63444 -80.38022 36943 ft 478 kts 172°
2026-05-03 23:49 13.56874 -80.36905 36941 ft 477 kts 172°
2026-05-03 23:49 13.50351 -80.35797 36942 ft 477 kts 172°
2026-05-03 23:50 13.44863 -80.34865 36938 ft 477 kts 172°
2026-05-03 23:50 13.37239 -80.33571 36935 ft 476 kts 172°
2026-05-03 23:51 13.30694 -80.32460 36939 ft 476 kts 172°
2026-05-03 23:51 13.24194 -80.31359 36935 ft 476 kts 172°
2026-05-03 23:52 13.17641 -80.30248 36936 ft 476 kts 172°
2026-05-03 23:52 13.11108 -80.29142 36933 ft 475 kts 172°
2026-05-03 23:53 13.04612 -80.28043 36940 ft 475 kts 172°
2026-05-03 23:53 12.98084 -80.26937 36935 ft 475 kts 172°
2026-05-03 23:54 12.91547 -80.25832 36934 ft 475 kts 172°
2026-05-03 23:54 12.85020 -80.24728 36941 ft 475 kts 172°
2026-05-03 23:55 12.78492 -80.23625 36933 ft 475 kts 172°
2026-05-03 23:55 12.71966 -80.22523 36937 ft 475 kts 171°
2026-05-03 23:56 12.65482 -80.21429 36936 ft 475 kts 171°
2026-05-03 23:56 12.58959 -80.20329 36934 ft 475 kts 171°
2026-05-03 23:57 12.52428 -80.19229 36929 ft 475 kts 171°
2026-05-03 23:57 12.45894 -80.18128 36935 ft 475 kts 171°
2026-05-03 23:58 12.39411 -80.17036 36933 ft 475 kts 171°
2026-05-03 23:58 12.32876 -80.15935 36933 ft 475 kts 171°
2026-05-03 23:59 12.26341 -80.14836 36937 ft 475 kts 171°
2026-05-03 23:59 12.19815 -80.13739 36930 ft 475 kts 171°
2026-05-04 00:00 12.13334 -80.12650 36929 ft 475 kts 171°
2026-05-04 00:00 12.06816 -80.11555 36929 ft 474 kts 171°
2026-05-04 00:01 12.00298 -80.10461 36935 ft 474 kts 171°
2026-05-04 00:01 11.93776 -80.09366 36927 ft 474 kts 171°
2026-05-04 00:02 11.87295 -80.08279 36925 ft 474 kts 171°
2026-05-04 00:02 11.80778 -80.07186 36928 ft 474 kts 171°
2026-05-04 00:03 11.74269 -80.06096 36925 ft 474 kts 171°
2026-05-04 00:03 11.67789 -80.05010 36924 ft 474 kts 171°
2026-05-04 00:04 11.61270 -80.03919 36932 ft 474 kts 171°
2026-05-04 00:04 11.54788 -80.02835 36926 ft 474 kts 171°
2026-05-04 00:05 11.48269 -80.01744 36925 ft 474 kts 171°
2026-05-04 00:05 11.41752 -80.00655 36926 ft 474 kts 171°
2026-05-04 00:06 11.35278 -79.99573 36920 ft 474 kts 171°
2026-05-04 00:06 11.28756 -79.98484 36919 ft 474 kts 171°
2026-05-04 00:07 11.22229 -79.97394 36925 ft 474 kts 171°
2026-05-04 00:07 11.15743 -79.96312 36928 ft 474 kts 171°
2026-05-04 00:08 11.10319 -79.95408 36928 ft 474 kts 171°
2026-05-04 00:08 11.02728 -79.94143 36928 ft 475 kts 171°
2026-05-04 00:09 10.97264 -79.93233 36928 ft 475 kts 171°
2026-05-04 00:09 10.90777 -79.92152 36927 ft 475 kts 171°
2026-05-04 00:10 10.84255 -79.91067 36922 ft 474 kts 171°
2026-05-04 00:10 10.77729 -79.89981 36923 ft 474 kts 171°
2026-05-04 00:11 10.71208 -79.88897 36918 ft 474 kts 171°
2026-05-04 00:11 10.64712 -79.87818 36392 ft 478 kts 171°
2026-05-04 00:12 10.61416 -79.87270 35682 ft 480 kts 171°
2026-05-04 00:12 10.58107 -79.86720 34996 ft 482 kts 171°
2026-05-04 00:12 10.54788 -79.86169 34319 ft 484 kts 171°
2026-05-04 00:12 10.51452 -79.85603 33594 ft 486 kts 170°
2026-05-04 00:13 10.48171 -79.84892 32863 ft 488 kts 166°
2026-05-04 00:13 10.44892 -79.83969 32174 ft 489 kts 163°
2026-05-04 00:13 10.41663 -79.82842 31483 ft 490 kts 159°
2026-05-04 00:13 10.38513 -79.81518 30818 ft 490 kts 156°
2026-05-04 00:14 10.35436 -79.79993 30150 ft 491 kts 152°
2026-05-04 00:14 10.32457 -79.78284 29415 ft 492 kts 149°
2026-05-04 00:14 10.29507 -79.76493 28718 ft 491 kts 149°
2026-05-04 00:14 10.26620 -79.74729 28067 ft 489 kts 149°
2026-05-04 00:15 10.23709 -79.72951 27423 ft 487 kts 149°
2026-05-04 00:15 10.20817 -79.71187 26920 ft 482 kts 149°
2026-05-04 00:15 10.17947 -79.69441 26442 ft 477 kts 150°
2026-05-04 00:15 10.15111 -79.67717 26000 ft 471 kts 150°
2026-05-04 00:16 10.12303 -79.66013 25477 ft 468 kts 150°
2026-05-04 00:16 10.09519 -79.64323 25020 ft 463 kts 150°
2026-05-04 00:16 10.06785 -79.62664 24817 ft 452 kts 150°
2026-05-04 00:16 10.04124 -79.61049 24720 ft 438 kts 150°
2026-05-04 00:17 10.01576 -79.59505 24595 ft 425 kts 150°
2026-05-04 00:17 9.99071 -79.57986 24483 ft 413 kts 150°
2026-05-04 00:17 9.96646 -79.56517 24371 ft 400 kts 150°
2026-05-04 00:17 9.94283 -79.55085 24271 ft 388 kts 150°
2026-05-04 00:18 9.91995 -79.53700 24178 ft 376 kts 150°
2026-05-04 00:18 9.89777 -79.52356 24077 ft 364 kts 150°
2026-05-04 00:18 9.87628 -79.51060 23983 ft 353 kts 151°
2026-05-04 00:18 9.85481 -79.49896 23881 ft 346 kts 155°
2026-05-04 00:19 9.83292 -79.48869 23519 ft 347 kts 157°
2026-05-04 00:19 9.81098 -79.47878 23103 ft 345 kts 157°
2026-05-04 00:19 9.78934 -79.46904 22738 ft 342 kts 156°
2026-05-04 00:19 9.76761 -79.45925 22385 ft 339 kts 156°
2026-05-04 00:20 9.74610 -79.44955 22049 ft 336 kts 156°
2026-05-04 00:20 9.72476 -79.43991 21710 ft 333 kts 156°
2026-05-04 00:20 9.70365 -79.43036 21387 ft 330 kts 156°
2026-05-04 00:20 9.68270 -79.42090 21050 ft 328 kts 156°
2026-05-04 00:21 9.66194 -79.41151 20723 ft 325 kts 156°
2026-05-04 00:21 9.64127 -79.40217 20387 ft 323 kts 156°
2026-05-04 00:21 9.62106 -79.39303 20062 ft 321 kts 156°
2026-05-04 00:21 9.60043 -79.38371 19725 ft 319 kts 155°
2026-05-04 00:22 9.58076 -79.37397 19418 ft 318 kts 151°
2026-05-04 00:22 9.56185 -79.36248 19083 ft 316 kts 146°
2026-05-04 00:22 9.54389 -79.34956 18758 ft 315 kts 143°
2026-05-04 00:22 9.52627 -79.33639 18433 ft 313 kts 143°
2026-05-04 00:23 9.50867 -79.32321 18100 ft 312 kts 143°
2026-05-04 00:23 9.49139 -79.31027 17744 ft 311 kts 143°
2026-05-04 00:23 9.47406 -79.29732 17388 ft 309 kts 143°
2026-05-04 00:23 9.45677 -79.28441 17056 ft 307 kts 143°
2026-05-04 00:24 9.43958 -79.27158 16722 ft 305 kts 143°
2026-05-04 00:24 9.42247 -79.25883 16394 ft 304 kts 143°
2026-05-04 00:24 9.40544 -79.24613 16075 ft 302 kts 143°
2026-05-04 00:24 9.38876 -79.23371 15760 ft 301 kts 143°
2026-05-04 00:25 9.37190 -79.22115 15435 ft 299 kts 143°
2026-05-04 00:25 9.35508 -79.20862 15116 ft 298 kts 143°
2026-05-04 00:25 9.33833 -79.19614 14797 ft 298 kts 143°
2026-05-04 00:25 9.32168 -79.18374 14479 ft 297 kts 143°
2026-05-04 00:26 9.30502 -79.17132 14165 ft 296 kts 143°
2026-05-04 00:26 9.28860 -79.15910 13848 ft 296 kts 143°
2026-05-04 00:26 9.27059 -79.14896 13455 ft 297 kts 164°
2026-05-04 00:26 9.25011 -79.14731 13087 ft 297 kts 188°
2026-05-04 00:27 9.23078 -79.15434 12741 ft 297 kts 211°
2026-05-04 00:27 9.21358 -79.16578 12448 ft 295 kts 213°
2026-05-04 00:27 9.19682 -79.17736 12136 ft 294 kts 213°
2026-05-04 00:27 9.17990 -79.18900 11829 ft 292 kts 213°
2026-05-04 00:28 9.16301 -79.20048 11519 ft 291 kts 213°
2026-05-04 00:28 9.14616 -79.21186 11209 ft 290 kts 213°
2026-05-04 00:28 9.12930 -79.22320 10910 ft 289 kts 213°
2026-05-04 00:28 9.11276 -79.23429 10612 ft 288 kts 213°
2026-05-04 00:29 9.09603 -79.24549 10310 ft 288 kts 213°
2026-05-04 00:29 9.07928 -79.25669 10010 ft 287 kts 213°
2026-05-04 00:29 9.06261 -79.26785 9715 ft 287 kts 213°
2026-05-04 00:29 9.04592 -79.27901 9381 ft 286 kts 213°
2026-05-04 00:30 9.02957 -79.28993 9082 ft 284 kts 212°
2026-05-04 00:30 9.01255 -79.30019 8788 ft 283 kts 209°
2026-05-04 00:30 8.99529 -79.30978 8500 ft 282 kts 208°
2026-05-04 00:30 8.97808 -79.31924 8203 ft 280 kts 208°
2026-05-04 00:31 8.96093 -79.32867 7934 ft 279 kts 208°
2026-05-04 00:31 8.94413 -79.33793 7661 ft 278 kts 209°
2026-05-04 00:31 8.92716 -79.34730 7373 ft 277 kts 209°
2026-05-04 00:31 8.91024 -79.35664 7097 ft 276 kts 209°
2026-05-04 00:32 8.89333 -79.36598 6817 ft 276 kts 209°
2026-05-04 00:32 8.87646 -79.37530 6533 ft 275 kts 209°
2026-05-04 00:32 8.85963 -79.38460 6259 ft 275 kts 209°
2026-05-04 00:32 8.84311 -79.39378 6051 ft 270 kts 212°
2026-05-04 00:33 8.83007 -79.40647 5912 ft 256 kts 246°
2026-05-04 00:33 8.83139 -79.43957 5488 ft 240 kts 307°
2026-05-04 00:33 8.84128 -79.45303 5232 ft 238 kts 310°
2026-05-04 00:34 8.85143 -79.46629 4956 ft 237 kts 310°
2026-05-04 00:34 8.86142 -79.47961 4691 ft 237 kts 309°
2026-05-04 00:34 8.87121 -79.49288 4471 ft 237 kts 310°
2026-05-04 00:34 8.88343 -79.50325 4148 ft 228 kts 339°
2026-05-04 00:35 8.89856 -79.50481 4102 ft 215 kts
2026-05-04 00:35 8.91202 -79.49869 3765 ft 215 kts 36°
2026-05-04 00:35 8.92334 -79.48895 3440 ft 210 kts 40°
2026-05-04 00:35 8.93403 -79.47939 3289 ft 199 kts 40°
2026-05-04 00:36 8.94425 -79.47029 3095 ft 193 kts 39°
2026-05-04 00:36 8.95424 -79.46146 2912 ft 190 kts 39°
2026-05-04 00:36 8.96439 -79.45294 2742 ft 189 kts 35°
2026-05-04 00:36 8.97528 -79.44572 2487 ft 189 kts 30°
2026-05-04 00:37 8.98651 -79.43890 2220 ft 185 kts 29°
2026-05-04 00:37 8.99734 -79.43239 1932 ft 175 kts 29°
2026-05-04 00:37 9.00767 -79.42623 1682 ft 171 kts 29°
2026-05-04 00:37 9.01788 -79.42012 1457 ft 170 kts 29°
2026-05-04 00:38 9.02810 -79.41400 1237 ft 170 kts 29°
2026-05-04 00:38 9.03812 -79.40797 1009 ft 169 kts 30°
2026-05-04 00:38 9.04830 -79.40189 756 ft 169 kts 30°
2026-05-04 00:38 9.05838 -79.39584 510 ft 168 kts 31°
2026-05-04 00:39 9.06840 -79.38985 293 ft 166 kts 31°
2026-05-04 00:39 9.07829 -79.38407 155 ft 155 kts 31°
2026-05-04 00:39 9.08498 -79.38002 151 ft 68 kts 31°
2026-05-04 00:39 9.08774 -79.37834 153 ft 42 kts 31°
2026-05-04 00:40 9.09020 -79.37686 152 ft 40 kts 31°
2026-05-04 00:40 9.09238 -79.37556 150 ft 28 kts 30°
2026-05-04 00:40 9.09336 -79.37483 150 ft 9 kts 86°
2026-05-04 00:40 9.09311 -79.37415 151 ft 10 kts 117°
2026-05-04 00:41 9.09272 -79.37352 152 ft 11 kts 146°
2026-05-04 00:41 9.09189 -79.37353 152 ft 13 kts 196°
2026-05-04 00:41 9.09092 -79.37381 152 ft 16 kts 196°
2026-05-04 00:41 9.08983 -79.37413 152 ft 16 kts 196°
2026-05-04 00:42 9.08867 -79.37455 152 ft 19 kts 209°
2026-05-04 00:42 9.08745 -79.37526 152 ft 20 kts 210°
2026-05-04 00:42 9.08638 -79.37590 152 ft 18 kts 211°
2026-05-04 00:42 9.08524 -79.37664 152 ft 21 kts 216°
2026-05-04 00:43 9.08414 -79.37769 152 ft 23 kts 226°
2026-05-04 00:43 9.08299 -79.37889 152 ft 24 kts 226°
2026-05-04 00:43 9.08187 -79.38003 152 ft 23 kts 220°
2026-05-04 00:43 9.08047 -79.38095 152 ft 25 kts 210°
2026-05-04 00:44 9.07893 -79.38187 152 ft 26 kts 210°
2026-05-04 00:44 9.07752 -79.38271 152 ft 22 kts 211°
2026-05-04 00:44 9.07631 -79.38344 153 ft 19 kts 211°
2026-05-04 00:44 9.07517 -79.38414 152 ft 19 kts 211°
2026-05-04 00:45 9.07424 -79.38471 152 ft 12 kts 212°
2026-05-04 00:45 9.07364 -79.38508 152 ft 10 kts 205°
2026-05-04 00:45 9.07311 -79.38490 152 ft 8 kts 127°
2026-05-04 00:45 9.07271 -79.38431 152 ft 12 kts 122°
2026-05-04 00:46 9.07232 -79.38367 152 ft 9 kts 127°
2026-05-04 00:46 9.07173 -79.38355 152 ft 11 kts 194°
2026-05-04 00:46 9.07097 -79.38389 152 ft 13 kts 207°
2026-05-04 00:46 9.07015 -79.38433 152 ft 13 kts 208°
2026-05-04 00:47 9.06935 -79.38450 152 ft 13 kts 149°
2026-05-04 00:47 9.06876 -79.38390 152 ft 12 kts 150°
2026-05-04 00:47 9.06789 -79.38394 152 ft 12 kts 201°
2026-05-04 00:47 9.06724 -79.38423 152 ft 8 kts 204°
2026-05-04 00:48 9.06691 -79.38449 152 ft 5 kts 252°
2026-05-04 00:48 9.06705 -79.38482 152 ft 5 kts 297°
2026-05-04 00:48 9.06703 -79.38499 152 ft 3 kts 215°
2026-05-04 00:48 9.06671 -79.38518 152 ft 7 kts 211°
2026-05-04 00:49 9.06631 -79.38542 152 ft 5 kts 214°
2026-05-04 00:49 9.06617 -79.38577 152 ft 5 kts 282°
2026-05-04 00:49 9.06634 -79.38602 152 ft 3 kts 303°
2026-05-04 00:49 9.06639 -79.38610 152 ft 0 kts 303°